Skip Page Navigation
NASA JPL Caltech
NASA Logo - Jet Propulsion Laboratory + View the NASA Portal
+ Center for Near-Earth Object Studies
JPL Home Earth Solar System Stars & Galaxies Technology
JPL Solar System Dynamics
BODIES ORBITS EPHEMERIDES TOOLS PHYSICAL DATA DISCOVERY FAQ SITE MAP
JPL Small-Body Database Browser
Search: [ help ]  
46601 (1993 FV15)
Classification: Main-belt Asteroid          SPK-ID: 2046601
Ephemeris | Orbit Diagram | Orbital Elements | Mission Design | Physical Parameters | Discovery Circumstances | Close-Approach Data ]

[ hide orbit diagram ]

For accurate long-term ephemerides, please instead use our Horizons system.This orbit viewer was implemented using two-body methods, and hence should not be used for determining accurate long-term trajectories (over several years or decades) or planetary encounter circumstances.


[ revert to old Java-based viewer ]

Orbital Elements at Epoch 2459000.5 (2020-May-31.0) TDB
Reference: JPL 25 (heliocentric ecliptic J2000)
 Element Value Uncertainty (1-sigma)   Units 
e .02315339171486443 3.2838e-08  
a 2.481334683878145 1.197e-08 au
q 2.423883369966635 8.5949e-08 au
i 4.208030817599323 3.4377e-06 deg
node 104.0712188741415 5.1297e-05 deg
peri 131.7868175724048 0.00012427 deg
M 296.7942839585579 0.00011561 deg
tp 2459251.157267508644
(2021-Feb-05.65726751)
0.00045905 TDB
period 1427.665438422476
3.91
1.033e-05
2.828e-08
d
yr
n .2521599180812196 1.8246e-09 deg/d
Q 2.538785997789655 1.2247e-08 au
  Orbit Determination Parameters
   # obs. used (total)      953  
   data-arc span      9947 days (27.23 yr)  
   first obs. used      1993-03-17  
   last obs. used      2020-06-10  
   planetary ephem.      DE431  
   SB-pert. ephem.      SB431-N16  
   condition code      0  
   norm. resid. RMS      .55473  
   source      ORB  
   producer      Otto Matic  
   solution date      2020-Nov-12 23:46:28  

Additional Information
 Earth MOID = 1.41304 au 
 Jupiter MOID = 2.43549 au 
 T_jup = 3.474 
[ show covariance matrix ]

Ephemeris | Orbit Diagram | Orbital Elements | Mission Design | Physical Parameters | Discovery Circumstances | Close-Approach Data ]

Physical Parameter Table
Parameter Symbol Value Units Sigma Reference Notes
absolute magnitude H 15.6   n/a MPO417139  

46601 (1993 FV15)          Discovered 1993-Mar-17 by UESAC at La Silla
Reference: 20020921/Numbers.arcLast Updated: 2004-04-19

[ show close-approach data ]
Alternate Designations
 1993 FV15 = 2000 AJ210 
Ephemeris | Orbit Diagram | Orbital Elements | Mission Design | Physical Parameters | Discovery Circumstances | Close-Approach Data ]
ABOUT SSD CREDITS/AWARDS PRIVACY/COPYRIGHT GLOSSARY LINKS
FirstGov 2020-Nov-30 09:15 UT
(server date/time)  
NASA Home Page
Site Manager:   Ryan S. Park
Webmaster  Alan B. Chamberlin